Weather in Jelgava

Latvia     56°39′08″N   23°43′28″E
temp.,
°C
wind,
m/s
gust,
m/s
humid.,
%
clouds,
%
prec.,
mm/h
press.,
hPa
HPBL,
m
7 may, fri
fri700:00+5sw51293100 0.0 10001031
03:00+5sw51188100 0.1 10001256
06:00+5sw4992100 0.2 1001885
09:00+6wsw488294 0.4 1003944
12:00+8sw467398 0.6 10031065
15:00+8wsw467385 2.1 1004921
18:00+9w356870 1.2 10031143
21:00+5nw239313 1.8 100450
8 may, sat
sat800:00+3wnw2596100 0.1 1006176
03:00+1wnw399518 0.1 1007350
06:000wnw310975 0.0 1008353
09:00+5wnw47755 0.0 1010945
12:00+9nw5847100 0.1 10112077
15:00+11n463993 0.1 10122197
18:00+10nnw224291 0.1 10131650
21:00+5wsw116750 0.3 101511
9 may, sun
sun900:00+3wsw25956 0.0 1016111
03:00+1sw25965 0.0 101893
06:00+1ssw2797100 0.0 1018165
09:00+7ssw477086 0.0 1019493
12:00+11ssw5745100 0.0 10191300
15:00+14ssw584583 0.0 10182136
18:00+11s41165100 0.1 10171489
21:00+11s51368100 0.1 1017829
10 may, mon
mon1000:00+10s41581100 0.0 1018535
03:00+9s413865 0.0 1018392
06:00+8s4138690 0.0 1019338
09:00+13s5116626 0.0 1020477
12:00+18s6105561 0.0 1021914
15:00+20s7105161 0.0 10211243
18:00+20sse6115695 0.0 10201205
21:00+15sse5137113 0.0 1021744
11 may, tue
tue1100:00+13sse515765 0.0 1021577
03:00+11sse515775 0.0 1021539
06:00+10sse5157630 0.0 1021508
09:00+14sse614631 0.0 1021639
12:00+19sse711505 0.0 1021993
15:00+21sse711444 0.0 10201250
18:00+20sse612515 0.0 10201168
21:00+16sse513630 0.0 1019726